CAPE
nan nan nan nan nan nan nan nan nan nan nan nan nan nan nan nan nan nan nan nan nan nan nan nan nan nan nan nan nan nan nan 2 6 6 9 15 24 24 27 34 34 37 46 55 55 60 66 77 77 77 81 93 102 102 112 128 128 140 153 163 163 174 185 195 195 213 231 261 294 294 317 327 321 321 355 394 416 416 383 345 345 298 270 247 247 237
nan nan nan nan nan nan nan nan nan nan nan nan nan nan nan nan nan nan nan nan nan nan nan nan nan nan nan nan nan nan nan 3 7 7 11 17 25 25 31 34 34 38 41 49 49 54 60 67 67 73 79 90 95 95 104 109 109 122 130 139 139 150 153 162 162 182 211 228 279 279 316 341 334 334 354 378 412 412 399 361 361 295 255 196 196 171
nan nan nan nan nan nan nan nan nan nan nan nan nan nan nan nan nan nan nan nan nan nan nan nan nan nan nan nan nan nan nan 4 8 8 12 17 21 21 26 34 34 39 47 46 46 55 60 66 66 77 79 85 97 97 96 108 108 110 118 127 127 131 140 148 148 162 190 214 256 256 289 326 333 333 328 308 300 300 300 278 278 246 204 176 176 157
0 0 0 nan nan nan nan nan nan nan nan nan nan nan nan nan nan nan nan nan nan nan nan nan nan nan nan nan nan nan 0 4 9 9 12 17 21 21 28 34 34 46 51 60 60 63 68 67 67 80 86 91 91 91 99 106 106 108 116 119 119 127 141 150 150 160 182 199 228 228 244 250 259 259 244 230 203 203 199 207 207 212 192 176 176 159
0 nan 0 nan nan nan nan nan nan nan nan nan nan nan nan nan nan nan nan nan nan nan nan nan nan nan nan nan nan nan 1 5 9 9 14 19 24 24 30 41 41 52 58 64 64 68 72 70 70 82 83 88 99 99 102 109 109 111 112 125 125 127 148 157 157 168 171 179 188 188 188 182 182 182 181 171 165 165 160 169 169 175 169 159 159 146
nan nan nan nan nan nan nan nan nan nan nan nan nan nan nan nan nan nan nan nan nan nan nan nan nan nan nan nan nan nan 0 6 10 10 14 19 24 24 35 41 41 52 55 61 61 66 71 75 75 76 77 88 90 90 98 111 111 111 114 114 114 119 132 139 139 149 147 143 146 146 143 146 154 154 155 153 139 139 129 129 129 141 134 128 128 126
nan nan nan nan nan nan nan nan nan nan nan nan nan nan nan nan nan nan nan nan nan nan nan nan nan nan nan nan nan nan 1 3 7 7 10 12 19 19 23 30 30 35 42 44 44 53 55 60 60 66 68 79 81 81 92 94 94 101 103 105 105 105 117 116 116 118 123 125 124 124 127 131 139 139 142 138 122 122 103 97 97 105 106 108 108 107
nan nan nan nan nan nan nan nan nan nan nan nan nan nan nan nan nan nan nan nan nan nan nan nan nan nan nan nan nan nan nan nan nan nan nan nan nan nan 2 7 7 12 18 27 27 35 45 48 48 60 72 76 87 87 93 95 95 97 94 97 97 93 94 101 101 108 112 116 113 113 112 111 112 112 106 93 85 85 71 64 64 59 69 80 80 90
nan nan nan nan nan nan nan nan nan nan nan nan nan nan nan nan nan nan nan nan nan nan nan nan nan nan nan nan nan nan nan nan nan nan nan nan nan nan nan 7 7 14 19 24 24 29 42 51 51 62 67 75 82 82 84 85 85 88 86 83 83 81 82 89 89 91 94 100 97 97 97 94 89 89 87 77 67 67 56 49 49 49 55 66 66 83
nan nan nan nan nan nan nan nan nan nan nan nan nan nan nan nan nan nan nan nan nan nan nan nan nan nan nan nan nan nan nan nan 5 5 14 3 13 13 7 6 6 5 17 19 19 24 30 37 37 46 51 56 58 58 56 57 57 55 57 56 56 59 62 70 70 71 73 77 80 80 79 76 67 67 63 58 51 51 46 41 41 39 49 61 61 74
nan nan nan nan nan nan nan nan nan nan nan nan nan nan nan nan nan nan nan nan nan nan nan nan nan nan nan nan nan nan nan nan nan nan nan 0 4 4 6 4 4 6 8 8 8 8 7 8 8 15 19 21 19 19 17 14 14 16 23 23 23 31 35 42 42 50 58 65 67 67 62 59 55 55 50 48 42 42 41 41 41 43 50 59 59 76
nan nan nan nan nan nan nan nan nan nan nan nan nan nan nan nan nan nan nan nan nan nan nan nan nan nan nan nan nan nan nan nan nan nan nan nan nan nan nan nan nan nan nan nan nan nan 0 0 0 1 0 nan 0 0 0 nan nan 1 1 6 6 12 16 26 26 29 36 42 45 45 47 46 46 46 44 40 42 42 41 44 44 47 53 65 65 82
nan nan nan nan nan nan nan nan nan nan nan nan nan nan nan nan nan nan nan nan nan nan nan nan nan nan nan nan nan nan nan nan nan nan nan nan nan nan nan nan nan nan nan nan nan nan nan nan nan nan nan nan nan nan nan nan nan nan 0 0 0 1 3 7 7 12 20 26 32 32 35 39 37 37 39 40 40 40 41 44 44 52 65 79 79 94
nan nan nan nan nan nan nan nan nan nan nan nan nan nan nan nan nan nan nan nan nan nan nan nan nan nan nan nan nan nan nan nan nan nan nan nan nan nan nan nan nan nan nan nan nan nan nan nan nan nan nan nan nan nan nan nan nan nan nan nan nan 0 0 2 2 5 10 17 25 25 28 32 33 33 37 40 43 43 42 48 48 59 72 91 91 110
nan nan nan nan nan nan nan nan nan nan nan nan nan nan nan nan nan nan nan nan nan nan nan nan nan nan nan nan nan nan nan nan nan nan nan nan nan nan nan nan nan nan nan nan nan nan nan nan nan nan nan nan nan nan nan nan nan nan nan nan nan 0 1 1 1 3 7 13 19 19 24 28 31 31 36 39 42 42 43 48 48 58 77 93 93 109
nan nan nan nan nan nan nan nan nan nan nan nan nan nan nan nan nan nan nan nan nan nan nan nan nan nan nan nan nan nan nan nan nan nan nan nan nan nan nan nan nan nan nan nan nan nan nan nan nan nan nan nan nan nan nan nan nan nan 0 0 0 1 1 3 3 5 8 13 20 20 23 25 31 31 35 40 42 42 47 56 56 63 74 91 91 108
nan nan nan nan nan nan nan nan nan nan nan nan nan nan nan nan nan nan nan nan nan nan nan nan nan nan nan nan nan nan nan nan nan nan nan nan nan nan nan nan nan nan nan nan nan nan nan nan nan nan nan nan nan nan nan nan nan 0 0 1 1 3 4 6 6 8 11 16 20 20 21 24 31 31 37 42 47 47 51 57 57 65 74 92 92 110
1 nan nan nan nan nan nan nan nan nan nan nan nan nan nan nan nan nan nan nan nan nan nan nan nan nan nan nan nan nan nan nan nan nan nan nan nan nan nan nan nan nan nan nan nan nan nan nan nan nan nan nan nan nan nan 0 0 1 2 4 4 6 8 9 9 11 15 21 21 21 20 26 30 30 36 41 49 49 52 59 59 66 82 97 97 120
1 0 nan nan nan nan nan nan nan nan nan nan nan nan nan nan nan nan nan nan nan nan nan nan nan nan nan nan nan nan nan nan nan nan nan nan nan nan nan nan nan nan nan nan nan nan nan nan nan nan nan nan nan nan 0 1 1 3 4 5 5 8 10 12 12 14 17 23 21 21 21 25 30 30 33 38 50 50 53 64 64 70 87 101 101 120
nan nan nan nan nan nan nan nan nan nan nan nan nan nan nan nan nan nan nan nan nan nan nan nan nan nan nan nan nan nan nan nan nan nan nan nan nan nan nan nan nan nan nan nan nan nan nan nan nan nan nan nan nan nan 0 2 2 4 5 7 7 8 10 13 13 14 17 22 20 20 20 23 26 26 30 39 50 50 55 62 62 71 84 97 97 111
nan nan nan nan nan nan 3 1 nan nan 4 3 nan nan nan nan nan nan nan nan nan nan nan nan nan nan nan nan nan nan nan nan nan nan nan nan nan nan nan nan nan nan nan nan nan nan nan nan nan nan nan nan nan nan 1 3 3 4 5 6 6 8 9 11 11 14 17 20 22 22 21 22 26 26 32 41 49 49 56 62 62 71 81 97 97 110
nan nan nan nan nan 2 14 0 9 9 17 5 0 0 nan nan nan nan nan nan nan nan nan nan nan nan nan nan nan nan nan nan nan nan nan nan nan nan nan nan nan nan nan nan nan nan nan nan nan nan nan nan nan nan 1 4 4 5 6 7 7 8 9 12 12 13 16 20 21 21 21 23 27 27 29 40 44 44 53 61 61 67 80 97 97 109
0 nan nan nan nan 1 10 8 9 9 15 6 5 5 nan nan nan nan nan nan nan nan nan nan nan nan nan nan nan nan nan nan nan nan nan nan nan nan nan nan nan nan nan nan nan nan nan nan nan nan nan nan nan nan 2 4 4 6 7 7 7 8 10 12 12 14 17 20 22 22 19 22 25 25 32 39 44 44 54 59 59 66 83 93 93 109
nan 0 nan nan nan 2 6 8 6 6 4 1 nan nan nan nan nan nan nan nan nan nan nan nan nan nan nan nan nan nan nan nan nan nan nan nan nan nan nan nan nan nan nan nan nan nan nan nan nan nan nan nan nan nan 1 4 4 6 7 8 8 8 10 13 13 14 18 22 22 22 20 21 25 25 30 36 44 44 49 56 56 67 72 85 85 97
nan nan nan 1 1 13 14 11 11 11 4 2 nan nan nan nan 1 1 0 nan nan nan nan nan nan nan nan 0 nan nan nan nan nan nan nan nan nan nan nan nan nan nan nan nan nan nan nan nan nan nan nan nan nan nan nan 2 2 5 6 7 7 8 9 13 13 16 17 21 22 22 22 22 27 27 30 35 41 41 46 48 48 57 63 68 68 72
6 5 0 12 12 100 117 126 130 130 73 42 33 33 24 26 10 10 nan nan nan 0 0 0 0 nan nan nan nan nan nan nan nan nan nan nan nan nan nan nan nan nan nan nan nan nan nan nan nan nan nan nan nan nan nan 0 0 3 5 5 5 6 9 11 11 13 15 20 21 21 22 26 29 29 32 35 39 39 41 42 42 46 50 53 53 59
124 111 158 185 185 206 194 187 173 173 151 87 18 18 19 28 27 27 11 nan nan nan 0 nan nan nan nan nan nan nan nan nan nan nan nan nan nan nan nan nan nan nan nan nan nan nan nan nan nan nan nan nan nan nan nan nan nan 1 2 4 4 4 6 8 8 11 13 17 20 20 26 28 28 28 31 33 33 33 36 34 34 40 40 47 47 52
84 97 135 172 172 173 142 109 96 96 76 60 42 42 15 12 18 18 17 12 12 0 nan nan nan nan nan nan nan nan nan nan nan nan nan nan nan nan nan nan nan nan nan nan nan nan nan nan nan nan nan nan nan nan nan nan nan nan 0 1 1 2 3 5 5 7 10 13 21 21 27 29 29 29 28 28 30 30 31 33 33 36 38 28 28 5
46 63 124 146 146 109 73 56 48 48 29 19 18 18 12 5 12 12 12 12 12 6 0 nan nan nan nan nan nan nan nan nan nan nan nan nan nan nan nan nan nan nan nan nan nan nan nan nan nan nan nan nan nan nan nan nan nan nan nan nan nan 0 1 2 2 3 5 11 19 19 26 28 27 27 24 22 25 25 27 31 31 34 27 6 6 0
4 96 91 45 45 25 10 2 13 13 22 17 15 15 11 nan 2 2 9 12 12 12 9 8 8 4 nan nan nan nan nan nan nan nan nan nan nan nan nan nan nan nan nan nan nan nan nan nan nan nan nan nan nan nan nan nan nan nan nan nan nan nan nan nan nan 0 1 6 13 13 19 23 23 23 20 18 18 18 22 27 27 23 7 nan nan nan
nan nan nan nan nan nan nan nan 0 0 24 26 17 17 4 nan nan nan nan 6 6 9 7 8 8 10 11 4 nan nan nan nan nan nan nan nan nan nan nan nan nan nan nan nan nan nan nan nan nan nan nan nan nan nan nan nan nan nan nan nan nan nan nan nan nan nan nan 0 3 3 10 14 16 16 15 16 18 18 20 26 26 21 0 nan nan nan
nan nan nan nan nan nan nan nan nan nan nan nan nan nan nan nan nan nan nan nan nan nan 0 0 0 0 3 4 4 4 0 nan nan nan nan nan nan nan nan nan nan nan nan nan nan nan nan 0 0 nan nan nan nan nan nan nan nan nan nan nan nan nan nan nan nan nan nan nan nan nan nan 0 2 2 3 8 13 13 17 23 23 20 4 0 0 7
nan nan nan nan nan nan nan nan nan nan nan nan nan nan nan nan nan nan nan nan nan nan nan 3 3 2 0 1 2 2 nan nan nan nan nan nan nan nan nan nan nan nan nan nan nan nan nan nan nan nan nan nan nan nan nan nan nan nan nan nan nan nan nan nan nan nan nan nan nan nan nan nan nan nan nan 2 5 5 10 14 14 20 14 2 2 9
nan nan nan nan nan nan nan nan nan nan nan nan nan nan nan nan nan nan nan nan nan nan nan nan nan 4 4 3 2 2 0 nan 5 5 21 nan nan nan nan nan nan nan nan nan nan nan nan nan nan nan nan nan nan nan nan nan nan nan nan nan nan nan nan nan nan nan nan nan nan nan nan nan nan nan nan nan nan nan 1 7 7 16 25 14 14 6
nan nan nan nan nan nan nan nan nan nan nan nan nan nan nan nan nan nan nan nan nan nan nan nan nan 1 10 9 5 5 3 1 22 22 38 23 22 22 4 3 3 0 nan nan nan nan nan nan nan nan nan nan nan nan nan nan nan nan nan nan nan nan nan nan nan nan nan nan nan nan nan nan nan nan nan nan nan nan nan 4 4 15 25 29 29 16
nan nan nan nan nan nan nan nan nan nan nan nan nan nan nan nan nan nan nan nan nan nan nan nan nan nan 9 19 17 17 9 nan 0 0 12 12 13 13 13 9 9 2 nan nan nan nan nan nan nan nan nan nan nan nan nan nan nan nan nan nan nan nan nan nan nan nan nan nan nan nan nan nan nan nan nan nan nan nan nan 2 2 9 13 16 16 14
nan nan nan nan nan nan nan nan nan nan nan nan nan nan nan nan nan nan nan nan nan nan nan nan nan nan 3 0 6 6 1 nan nan nan 0 nan 4 4 9 7 7 11 8 3 3 0 nan nan nan nan nan nan nan nan nan nan nan nan nan nan nan nan nan nan nan nan nan nan nan nan nan nan nan nan nan nan nan nan nan nan nan nan 1 1 1 2
nan nan nan nan nan nan nan nan nan nan nan nan nan nan nan nan nan nan nan nan nan nan nan nan nan nan nan 3 nan nan nan nan nan nan nan nan 3 3 9 8 8 3 3 3 3 2 2 2 2 2 1 nan nan nan nan nan nan nan nan nan nan nan nan nan nan nan nan nan nan nan nan nan nan nan nan nan nan nan nan nan nan nan nan nan nan nan
nan nan nan nan nan nan nan nan nan nan nan nan nan nan nan nan nan nan nan nan nan nan nan nan nan nan nan nan nan nan nan nan nan nan nan nan nan nan 8 9 9 3 1 1 1 2 3 4 4 3 2 nan nan nan nan nan nan nan nan nan nan nan nan nan nan nan nan nan nan nan nan nan nan nan nan nan nan nan nan nan nan nan nan nan nan nan
nan nan nan nan nan nan nan nan nan nan nan nan nan nan nan nan nan nan nan nan nan nan nan nan nan nan nan nan nan nan nan nan nan nan nan nan nan nan 2 6 6 6 3 1 1 3 4 5 5 6 6 2 nan nan nan nan nan nan nan nan nan nan nan nan nan nan nan nan nan nan nan nan nan nan nan nan nan nan nan nan nan nan nan nan nan nan
3 3 1 nan nan nan nan nan nan nan nan nan nan nan nan nan nan nan nan nan nan nan nan nan nan nan nan nan nan nan nan nan nan nan nan nan nan nan nan 0 0 5 3 1 1 4 9 7 7 7 4 2 2 2 nan nan nan nan nan nan nan nan nan nan nan nan nan nan nan nan nan nan nan nan nan nan nan nan nan nan nan nan nan nan nan nan
17 9 3 nan nan nan nan nan nan nan nan nan nan nan nan nan 3 3 3 1 1 nan nan nan nan 0 nan nan nan nan nan nan nan nan nan nan nan nan nan nan nan 0 nan nan nan 0 2 4 4 4 2 1 0 0 nan nan nan nan nan nan nan nan nan nan nan nan nan nan nan nan nan nan nan nan nan nan nan nan nan nan nan nan nan nan nan nan
4 4 nan nan nan nan nan nan 0 0 1 nan nan nan nan nan 4 4 9 8 8 5 0 nan nan 2 1 nan nan nan nan nan nan nan nan nan nan nan nan nan nan nan nan nan nan nan nan 0 0 nan nan nan nan nan nan nan nan nan nan nan nan nan nan nan nan nan nan nan nan nan nan nan nan nan nan nan nan nan nan nan nan nan nan nan nan nan
nan nan nan nan nan nan 0 2 2 2 7 14 8 8 nan nan 1 1 5 3 3 4 2 nan nan nan 0 0 nan nan nan nan nan nan nan nan nan nan nan nan nan 0 2 1 1 1 nan nan nan nan nan nan nan nan nan nan nan nan nan nan nan nan nan nan nan nan nan nan nan nan nan nan nan nan nan nan nan nan nan nan nan nan nan nan nan nan
nan nan nan 1 1 2 2 7 11 11 12 13 4 4 nan nan nan nan nan nan nan nan nan nan nan nan nan nan nan nan nan nan nan nan nan nan 3 3 nan nan nan nan 1 4 4 2 nan nan nan nan nan nan nan nan nan nan nan nan nan nan nan nan nan nan nan nan nan nan nan nan nan nan nan nan nan nan nan nan nan nan nan nan nan nan nan nan
nan nan 1 3 3 4 14 16 12 12 6 3 nan nan nan nan nan nan nan nan nan nan nan nan nan nan nan nan nan nan nan nan nan nan nan nan nan nan nan nan nan nan nan 0 0 nan nan nan nan nan nan nan nan nan nan nan nan nan nan nan nan nan nan nan nan nan nan nan nan nan nan nan nan nan nan nan nan nan nan nan nan nan nan nan nan nan
nan 0 3 3 3 6 8 6 3 3 2 nan nan nan nan nan nan nan nan nan nan nan nan nan nan nan nan 0 nan nan nan nan nan nan nan nan nan nan nan nan nan nan nan 0 0 nan nan nan nan nan nan nan nan nan nan nan nan nan nan nan nan nan nan nan nan nan nan nan nan nan nan nan nan nan nan nan nan nan nan nan nan nan nan nan nan nan
10 12 5 3 3 4 2 0 0 0 0 nan nan nan nan nan nan nan nan nan nan nan nan nan nan nan nan nan nan nan nan nan nan nan nan nan nan nan nan nan nan nan nan 4 4 6 nan nan nan nan nan nan nan nan nan nan nan nan nan nan nan nan nan nan nan nan nan nan nan nan nan nan nan nan nan nan nan nan nan nan nan nan nan nan nan nan
9 3 1 3 3 2 0 nan nan nan 1 2 0 0 nan nan 21 21 3 nan nan nan nan nan nan nan nan nan nan nan nan 0 nan nan nan nan nan nan nan nan nan nan nan 1 1 1 nan nan nan nan nan nan nan nan nan nan nan nan nan nan nan nan nan nan nan nan nan nan nan nan nan nan nan nan nan nan nan nan nan nan nan nan nan nan nan nan
2 0 3 2 2 1 0 1 2 2 3 4 0 0 nan nan nan nan 1 1 1 0 nan nan nan nan nan nan nan nan nan nan nan nan nan nan nan nan nan nan nan nan nan nan nan nan nan nan nan nan 2 nan nan nan nan nan nan nan nan nan nan nan nan nan nan nan nan nan nan nan nan nan nan nan nan nan nan nan nan nan nan nan nan nan nan nan
6 3 2 1 1 2 0 1 2 2 2 2 5 5 nan nan nan nan nan nan nan nan nan nan nan nan nan nan nan nan nan nan nan nan nan nan nan nan nan nan nan nan nan nan nan nan nan nan nan nan 3 14 1 1 nan nan nan nan nan nan nan nan nan nan nan nan nan nan nan nan nan nan nan nan nan nan nan nan nan nan nan nan nan nan nan nan
CIN
nan nan nan nan nan nan nan nan nan nan nan nan nan nan nan nan nan nan nan nan nan nan nan nan nan nan nan nan nan nan nan 0 0 0 0 0 0 0 0 0 0 0 0 0 0 0 0 0 0 0 0 0 0 0 0 0 0 0 0 0 0 0 0 0 0 0 0 0 0 0 0 0 0 0 0 0 0 0 0 0 0 0 0 0 0 0
nan nan nan nan nan nan nan nan nan nan nan nan nan nan nan nan nan nan nan nan nan nan nan nan nan nan nan nan nan nan nan 0 0 0 0 0 0 0 0 0 0 0 0 0 0 0 0 0 0 0 0 0 0 0 0 0 0 0 0 0 0 0 0 0 0 0 0 0 0 0 0 0 0 0 0 0 0 0 0 0 0 0 0 0 0 0
nan nan nan nan nan nan nan nan nan nan nan nan nan nan nan nan nan nan nan nan nan nan nan nan nan nan nan nan nan nan nan 0 0 0 0 0 0 0 0 0 0 0 0 0 0 0 0 0 0 0 0 0 0 0 0 0 0 0 0 0 0 0 0 0 0 0 0 0 0 0 0 0 0 0 0 0 0 0 0 0 0 0 0 0 0 0
-1 -6 -0 nan nan nan nan nan nan nan nan nan nan nan nan nan nan nan nan nan nan nan nan nan nan nan nan nan nan nan 0 0 0 0 0 0 0 0 0 0 0 0 0 0 0 0 0 0 0 0 0 0 0 0 0 0 0 0 0 0 0 0 0 0 0 0 0 0 0 0 0 0 0 0 0 0 0 0 0 0 0 0 0 0 0 0
-3 nan -5 nan nan nan nan nan nan nan nan nan nan nan nan nan nan nan nan nan nan nan nan nan nan nan nan nan nan nan 0 0 0 0 0 0 0 0 0 0 0 0 0 0 0 0 0 0 0 0 0 0 0 0 0 0 0 0 0 0 0 0 0 0 0 0 0 0 0 0 0 0 0 0 0 0 0 0 0 0 0 0 0 0 0 0
nan nan nan nan nan nan nan nan nan nan nan nan nan nan nan nan nan nan nan nan nan nan nan nan nan nan nan nan nan nan 0 0 0 0 0 0 0 0 0 0 0 0 0 0 0 0 0 0 0 0 0 0 0 0 0 0 0 0 0 0 0 0 0 0 0 0 0 0 0 0 0 0 0 0 0 0 0 0 0 0 0 0 0 0 0 0
nan nan nan nan nan nan nan nan nan nan nan nan nan nan nan nan nan nan nan nan nan nan nan nan nan nan nan nan nan nan 0 0 0 0 0 0 0 0 0 0 0 0 0 0 0 0 0 0 0 0 0 0 0 0 0 0 0 0 0 0 0 0 0 0 0 0 0 0 0 0 0 0 0 0 0 0 0 0 0 0 0 0 0 0 0 0
nan nan nan nan nan nan nan nan nan nan nan nan nan nan nan nan nan nan nan nan nan nan nan nan nan nan nan nan nan nan nan nan nan nan nan nan nan nan 0 0 0 0 0 0 0 0 0 0 0 0 0 0 0 0 0 0 0 0 0 0 0 0 0 0 0 0 0 0 0 0 0 0 0 0 0 0 0 0 0 0 0 0 0 0 0 0
nan nan nan nan nan nan nan nan nan nan nan nan nan nan nan nan nan nan nan nan nan nan nan nan nan nan nan nan nan nan nan nan nan nan nan nan nan nan nan 0 0 0 0 0 0 0 0 0 0 0 0 0 0 0 0 0 0 0 0 0 0 0 0 0 0 0 0 0 0 0 0 0 0 0 0 0 0 0 0 0 0 0 0 0 0 0
nan nan nan nan nan nan nan nan nan nan nan nan nan nan nan nan nan nan nan nan nan nan nan nan nan nan nan nan nan nan nan nan 0 0 0 -0 0 0 0 0 0 0 0 0 0 0 0 0 0 0 0 0 0 0 0 0 0 0 0 0 0 0 0 0 0 0 0 0 0 0 0 0 0 0 0 0 0 0 0 0 0 0 0 0 0 0
nan nan nan nan nan nan nan nan nan nan nan nan nan nan nan nan nan nan nan nan nan nan nan nan nan nan nan nan nan nan nan nan nan nan nan -2 0 0 0 0 0 0 0 0 0 0 0 0 0 0 0 0 0 0 0 0 0 0 0 0 0 0 0 0 0 0 0 0 0 0 0 0 0 0 0 0 0 0 0 0 0 0 0 0 0 0
nan nan nan nan nan nan nan nan nan nan nan nan nan nan nan nan nan nan nan nan nan nan nan nan nan nan nan nan nan nan nan nan nan nan nan nan nan nan nan nan nan nan nan nan nan nan 0 0 0 0 0 nan 0 0 0 nan nan 0 0 0 0 0 0 0 0 0 0 0 0 0 0 0 0 0 0 0 0 0 0 0 0 0 0 0 0 0
nan nan nan nan nan nan nan nan nan nan nan nan nan nan nan nan nan nan nan nan nan nan nan nan nan nan nan nan nan nan nan nan nan nan nan nan nan nan nan nan nan nan nan nan nan nan nan nan nan nan nan nan nan nan nan nan nan nan 0 0 0 0 0 0 0 0 0 0 0 0 0 0 0 0 0 0 0 0 0 0 0 0 0 0 0 0
nan nan nan nan nan nan nan nan nan nan nan nan nan nan nan nan nan nan nan nan nan nan nan nan nan nan nan nan nan nan nan nan nan nan nan nan nan nan nan nan nan nan nan nan nan nan nan nan nan nan nan nan nan nan nan nan nan nan nan nan nan 0 0 0 0 0 0 0 0 0 0 0 0 0 0 0 0 0 0 0 0 0 0 0 0 0
nan nan nan nan nan nan nan nan nan nan nan nan nan nan nan nan nan nan nan nan nan nan nan nan nan nan nan nan nan nan nan nan nan nan nan nan nan nan nan nan nan nan nan nan nan nan nan nan nan nan nan nan nan nan nan nan nan nan nan nan nan 0 0 0 0 0 0 0 0 0 0 0 0 0 0 0 0 0 0 0 0 0 0 0 0 0
nan nan nan nan nan nan nan nan nan nan nan nan nan nan nan nan nan nan nan nan nan nan nan nan nan nan nan nan nan nan nan nan nan nan nan nan nan nan nan nan nan nan nan nan nan nan nan nan nan nan nan nan nan nan nan nan nan nan 0 0 0 0 0 0 0 0 0 0 0 0 0 0 0 0 0 0 0 0 0 0 0 0 0 0 0 0
nan nan nan nan nan nan nan nan nan nan nan nan nan nan nan nan nan nan nan nan nan nan nan nan nan nan nan nan nan nan nan nan nan nan nan nan nan nan nan nan nan nan nan nan nan nan nan nan nan nan nan nan nan nan nan nan nan 0 0 0 0 0 0 0 0 0 0 0 0 0 0 0 0 0 0 0 0 0 0 0 0 0 0 0 0 0
-8 nan nan nan nan nan nan nan nan nan nan nan nan nan nan nan nan nan nan nan nan nan nan nan nan nan nan nan nan nan nan nan nan nan nan nan nan nan nan nan nan nan nan nan nan nan nan nan nan nan nan nan nan nan nan 0 0 0 0 0 0 0 0 0 0 0 0 0 0 0 0 0 0 0 0 0 0 0 0 0 0 0 0 0 0 0
-4 -7 nan nan nan nan nan nan nan nan nan nan nan nan nan nan nan nan nan nan nan nan nan nan nan nan nan nan nan nan nan nan nan nan nan nan nan nan nan nan nan nan nan nan nan nan nan nan nan nan nan nan nan nan 0 0 0 0 0 0 0 0 0 0 0 0 0 0 0 0 0 0 0 0 0 0 0 0 0 0 0 0 0 0 0 0
nan nan nan nan nan nan nan nan nan nan nan nan nan nan nan nan nan nan nan nan nan nan nan nan nan nan nan nan nan nan nan nan nan nan nan nan nan nan nan nan nan nan nan nan nan nan nan nan nan nan nan nan nan nan 0 0 0 0 0 0 0 0 0 0 0 0 0 0 0 0 0 0 0 0 0 0 0 0 0 0 0 0 0 0 0 0
nan nan nan nan nan nan -4 -11 nan nan -14 -9 nan nan nan nan nan nan nan nan nan nan nan nan nan nan nan nan nan nan nan nan nan nan nan nan nan nan nan nan nan nan nan nan nan nan nan nan nan nan nan nan nan nan 0 0 0 0 0 0 0 0 0 0 0 0 0 0 0 0 0 0 0 0 0 0 0 0 0 0 0 0 0 0 0 0
nan nan nan nan nan -6 -3 -14 -12 -12 -9 -6 -19 -19 nan nan nan nan nan nan nan nan nan nan nan nan nan nan nan nan nan nan nan nan nan nan nan nan nan nan nan nan nan nan nan nan nan nan nan nan nan nan nan nan 0 0 0 0 0 0 0 0 0 0 0 0 0 0 0 0 0 0 0 0 0 0 0 0 0 0 0 0 0 0 0 0
-0 nan nan nan nan -14 -6 -13 -14 -14 -6 -3 -1 -1 nan nan nan nan nan nan nan nan nan nan nan nan nan nan nan nan nan nan nan nan nan nan nan nan nan nan nan nan nan nan nan nan nan nan nan nan nan nan nan nan 0 0 0 0 0 0 0 0 0 0 0 0 0 0 0 0 0 0 0 0 0 0 0 0 0 0 0 0 0 0 0 0
nan -2 nan nan nan -18 -17 -17 -21 -21 -21 -24 nan nan nan nan nan nan nan nan nan nan nan nan nan nan nan nan nan nan nan nan nan nan nan nan nan nan nan nan nan nan nan nan nan nan nan nan nan nan nan nan nan nan 0 0 0 0 0 0 0 0 0 0 0 0 0 0 0 0 0 0 0 0 0 0 0 0 0 0 0 0 0 0 0 0
nan nan nan -18 -18 -7 -8 -9 -10 -10 -18 -16 nan nan nan nan -2 -2 -4 nan nan nan nan nan nan nan nan -8 nan nan nan nan nan nan nan nan nan nan nan nan nan nan nan nan nan nan nan nan nan nan nan nan nan nan nan 0 0 0 0 0 0 0 0 0 0 0 0 0 0 0 0 0 0 0 0 0 0 0 0 0 0 0 0 0 0 0
-1 -1 -5 -7 -7 -0 0 0 0 0 -4 -15 -12 -12 -7 -3 -4 -4 nan nan nan -0 -0 0 0 nan nan nan nan nan nan nan nan nan nan nan nan nan nan nan nan nan nan nan nan nan nan nan nan nan nan nan nan nan nan -0 -0 0 0 0 0 0 0 0 0 0 0 0 0 0 0 0 0 0 0 0 0 0 0 0 0 0 0 0 0 0
0 0 0 0 0 0 0 0 0 0 0 0 -18 -18 -17 -6 -2 -2 -2 nan nan nan 0 nan nan nan nan nan nan nan nan nan nan nan nan nan nan nan nan nan nan nan nan nan nan nan nan nan nan nan nan nan nan nan nan nan nan 0 0 0 0 0 0 0 0 0 0 0 0 0 0 0 0 0 0 0 0 0 0 0 0 0 0 0 0 0
0 0 0 0 0 0 0 0 0 0 0 0 0 0 -10 -9 -1 -1 -1 -3 -3 -4 nan nan nan nan nan nan nan nan nan nan nan nan nan nan nan nan nan nan nan nan nan nan nan nan nan nan nan nan nan nan nan nan nan nan nan nan 0 0 0 0 0 0 0 0 0 0 0 0 0 0 0 0 0 0 0 0 0 0 0 0 0 -4 -4 -30
0 0 0 0 0 0 0 0 0 0 0 0 0 0 -7 -10 -1 -1 -1 -2 -2 -1 -2 nan nan nan nan nan nan nan nan nan nan nan nan nan nan nan nan nan nan nan nan nan nan nan nan nan nan nan nan nan nan nan nan nan nan nan nan nan nan 0 0 0 0 0 0 0 0 0 0 0 0 0 0 0 0 0 0 0 0 0 0 -27 -27 -37
0 0 -0 -1 -1 -0 -0 -8 -0 -0 0 0 0 0 -2 nan -4 -4 -2 -1 -1 -0 -0 -0 -0 -1 nan nan nan nan nan nan nan nan nan nan nan nan nan nan nan nan nan nan nan nan nan nan nan nan nan nan nan nan nan nan nan nan nan nan nan nan nan nan nan 0 0 0 0 0 0 0 0 0 0 0 0 0 0 0 0 -1 -28 nan nan nan
nan nan nan nan nan nan nan nan -14 -14 0 0 0 0 -8 nan nan nan nan -5 -5 -1 -1 -0 -0 -0 -0 -1 nan nan nan nan nan nan nan nan nan nan nan nan nan nan nan nan nan nan nan nan nan nan nan nan nan nan nan nan nan nan nan nan nan nan nan nan nan nan nan -4 -1 -1 0 0 0 0 0 0 0 0 0 0 0 -2 -44 nan nan nan
nan nan nan nan nan nan nan nan nan nan nan nan nan nan nan nan nan nan nan nan nan nan -12 -6 -6 -4 -2 -1 -0 -0 -7 nan nan nan nan nan nan nan nan nan nan nan nan nan nan nan nan -5 -5 nan nan nan nan nan nan nan nan nan nan nan nan nan nan nan nan nan nan nan nan nan nan -4 -1 -1 -0 0 0 0 0 0 0 0 -18 -30 -30 -15
nan nan nan nan nan nan nan nan nan nan nan nan nan nan nan nan nan nan nan nan nan nan nan -4 -4 -3 -4 -4 -3 -3 nan nan nan nan nan nan nan nan nan nan nan nan nan nan nan nan nan nan nan nan nan nan nan nan nan nan nan nan nan nan nan nan nan nan nan nan nan nan nan nan nan nan nan nan nan -4 -2 -2 -0 0 0 0 -2 -28 -28 -17
nan nan nan nan nan nan nan nan nan nan nan nan nan nan nan nan nan nan nan nan nan nan nan nan nan -3 -2 -2 -3 -3 -8 nan -12 -12 -7 nan nan nan nan nan nan nan nan nan nan nan nan nan nan nan nan nan nan nan nan nan nan nan nan nan nan nan nan nan nan nan nan nan nan nan nan nan nan nan nan nan nan nan -8 -2 -2 0 0 -13 -13 -23
nan nan nan nan nan nan nan nan nan nan nan nan nan nan nan nan nan nan nan nan nan nan nan nan nan -8 -1 -1 -2 -2 -5 -18 -6 -6 -2 -1 -0 -0 -1 -2 -2 -16 nan nan nan nan nan nan nan nan nan nan nan nan nan nan nan nan nan nan nan nan nan nan nan nan nan nan nan nan nan nan nan nan nan nan nan nan nan -1 -1 0 0 0 0 -5
nan nan nan nan nan nan nan nan nan nan nan nan nan nan nan nan nan nan nan nan nan nan nan nan nan nan -5 -1 -1 -1 -4 nan -15 -15 -4 -3 -1 -1 -1 -2 -2 -4 nan nan nan nan nan nan nan nan nan nan nan nan nan nan nan nan nan nan nan nan nan nan nan nan nan nan nan nan nan nan nan nan nan nan nan nan nan -2 -2 0 0 0 0 0
nan nan nan nan nan nan nan nan nan nan nan nan nan nan nan nan nan nan nan nan nan nan nan nan nan nan -6 -10 -7 -7 -12 nan nan nan -7 nan -3 -3 -1 -3 -3 -2 -1 -3 -3 -5 nan nan nan nan nan nan nan nan nan nan nan nan nan nan nan nan nan nan nan nan nan nan nan nan nan nan nan nan nan nan nan nan nan nan nan nan -4 -2 -2 0
nan nan nan nan nan nan nan nan nan nan nan nan nan nan nan nan nan nan nan nan nan nan nan nan nan nan nan -4 nan nan nan nan nan nan nan nan -2 -2 -1 -2 -2 -4 -3 -3 -3 -3 -3 -3 -3 -4 -7 nan nan nan nan nan nan nan nan nan nan nan nan nan nan nan nan nan nan nan nan nan nan nan nan nan nan nan nan nan nan nan nan nan nan nan
nan nan nan nan nan nan nan nan nan nan nan nan nan nan nan nan nan nan nan nan nan nan nan nan nan nan nan nan nan nan nan nan nan nan nan nan nan nan -0 -1 -1 -4 -7 -5 -5 -2 -2 -2 -2 -4 -4 nan nan nan nan nan nan nan nan nan nan nan nan nan nan nan nan nan nan nan nan nan nan nan nan nan nan nan nan nan nan nan nan nan nan nan
nan nan nan nan nan nan nan nan nan nan nan nan nan nan nan nan nan nan nan nan nan nan nan nan nan nan nan nan nan nan nan nan nan nan nan nan nan nan -2 -1 -1 -3 -5 -6 -6 -3 -2 -3 -3 -4 -3 -7 nan nan nan nan nan nan nan nan nan nan nan nan nan nan nan nan nan nan nan nan nan nan nan nan nan nan nan nan nan nan nan nan nan nan
-4 -5 -11 nan nan nan nan nan nan nan nan nan nan nan nan nan nan nan nan nan nan nan nan nan nan nan nan nan nan nan nan nan nan nan nan nan nan nan nan -2 -2 -2 -3 -4 -4 -3 -2 -3 -3 -4 -6 -8 -8 -8 nan nan nan nan nan nan nan nan nan nan nan nan nan nan nan nan nan nan nan nan nan nan nan nan nan nan nan nan nan nan nan nan
-0 -3 -9 nan nan nan nan nan nan nan nan nan nan nan nan nan -7 -7 -7 -12 -12 nan nan nan nan -13 nan nan nan nan nan nan nan nan nan nan nan nan nan nan nan -2 nan nan nan -3 -2 -2 -2 -4 -7 -9 -8 -8 nan nan nan nan nan nan nan nan nan nan nan nan nan nan nan nan nan nan nan nan nan nan nan nan nan nan nan nan nan nan nan nan
-3 -5 nan nan nan nan nan nan -21 -21 -24 nan nan nan nan nan -7 -7 -3 -3 -3 -5 -13 nan nan -4 -5 nan nan nan nan nan nan nan nan nan nan nan nan nan nan nan nan nan nan nan nan -3 -3 nan nan nan nan nan nan nan nan nan nan nan nan nan nan nan nan nan nan nan nan nan nan nan nan nan nan nan nan nan nan nan nan nan nan nan nan nan
nan nan nan nan nan nan -24 -18 -18 -18 -10 -4 -8 -8 nan nan -12 -12 -4 -4 -4 -3 -6 nan nan nan -5 -9 nan nan nan nan nan nan nan nan nan nan nan nan nan -12 -5 -7 -7 -7 nan nan nan nan nan nan nan nan nan nan nan nan nan nan nan nan nan nan nan nan nan nan nan nan nan nan nan nan nan nan nan nan nan nan nan nan nan nan nan nan
nan nan nan -18 -18 -16 -18 -10 -8 -8 -6 -5 -10 -10 nan nan nan nan nan nan nan nan nan nan nan nan nan nan nan nan nan nan nan nan nan nan -7 -7 nan nan nan nan -8 -3 -3 -4 nan nan nan nan nan nan nan nan nan nan nan nan nan nan nan nan nan nan nan nan nan nan nan nan nan nan nan nan nan nan nan nan nan nan nan nan nan nan nan nan
nan nan -14 -13 -13 -12 -3 -4 -7 -7 -10 -10 nan nan nan nan nan nan nan nan nan nan nan nan nan nan nan nan nan nan nan nan nan nan nan nan nan nan nan nan nan nan nan -9 -9 nan nan nan nan nan nan nan nan nan nan nan nan nan nan nan nan nan nan nan nan nan nan nan nan nan nan nan nan nan nan nan nan nan nan nan nan nan nan nan nan nan
nan -15 -11 -12 -12 -8 -6 -8 -12 -12 -10 nan nan nan nan nan nan nan nan nan nan nan nan nan nan nan nan -6 nan nan nan nan nan nan nan nan nan nan nan nan nan nan nan -12 -12 nan nan nan nan nan nan nan nan nan nan nan nan nan nan nan nan nan nan nan nan nan nan nan nan nan nan nan nan nan nan nan nan nan nan nan nan nan nan nan nan nan
-3 -3 -9 -11 -11 -9 -12 -18 -17 -17 -12 nan nan nan nan nan nan nan nan nan nan nan nan nan nan nan nan nan nan nan nan nan nan nan nan nan nan nan nan nan nan nan nan -7 -7 -2 nan nan nan nan nan nan nan nan nan nan nan nan nan nan nan nan nan nan nan nan nan nan nan nan nan nan nan nan nan nan nan nan nan nan nan nan nan nan nan nan
-6 -11 -12 -10 -10 -9 -13 nan nan nan -12 -9 -14 -14 nan nan 0 0 -2 nan nan nan nan nan nan nan nan nan nan nan nan -1 nan nan nan nan nan nan nan nan nan nan nan -8 -8 -3 nan nan nan nan nan nan nan nan nan nan nan nan nan nan nan nan nan nan nan nan nan nan nan nan nan nan nan nan nan nan nan nan nan nan nan nan nan nan nan nan
-12 -15 -7 -7 -7 -8 -10 -9 -9 -9 -7 -5 -14 -14 nan nan nan nan -4 -4 -4 -4 nan nan nan nan nan nan nan nan nan nan nan nan nan nan nan nan nan nan nan nan nan nan nan nan nan nan nan nan 0 nan nan nan nan nan nan nan nan nan nan nan nan nan nan nan nan nan nan nan nan nan nan nan nan nan nan nan nan nan nan nan nan nan nan nan
-3 -5 -7 -8 -8 -4 -7 -9 -5 -5 -5 -5 -3 -3 nan nan nan nan nan nan nan nan nan nan nan nan nan nan nan nan nan nan nan nan nan nan nan nan nan nan nan nan nan nan nan nan nan nan nan nan 0 0 -0 -0 nan nan nan nan nan nan nan nan nan nan nan nan nan nan nan nan nan nan nan nan nan nan nan nan nan nan nan nan nan nan nan nan
Wind_Speed
5 5 6 6 6 6 7 7 8 8 8 7 7 7 7 8 8 8 9 9 9 8 8 8 9 10 11 15 18 21 23 24 24 25 25 25 25 25 25 25 25 25 24 24 24 24 23 23 23 23 23 23 23 23 23 23 23 23 23 22 22 22 21 21 21 21 21 21 21 21 21 21 22 22 22 22 22 22 23 23 23 23 22 22 22 22
6 6 5 6 6 6 7 8 8 8 8 8 8 8 8 8 8 7 8 9 9 8 8 8 9 9 10 12 16 20 22 23 24 25 25 25 25 25 25 25 25 25 24 24 24 24 23 23 23 23 22 22 22 22 22 22 22 22 22 22 22 22 21 21 21 21 21 21 21 21 21 21 22 22 22 22 21 21 21 22 22 22 21 21 22 22
7 7 6 6 6 6 7 7 7 7 8 9 9 9 9 9 9 8 8 9 9 8 8 8 8 9 10 11 15 19 21 23 24 24 25 25 25 25 25 25 25 24 24 24 24 24 23 23 23 23 22 22 22 22 22 22 22 22 22 22 21 21 21 21 21 20 20 20 20 20 21 21 21 21 21 21 21 20 20 21 21 21 21 21 21 22
8 8 7 6 6 6 7 7 7 7 8 9 10 10 10 9 9 9 8 8 8 8 8 8 8 8 9 9 12 16 20 22 23 24 25 25 25 25 25 25 24 24 24 24 24 24 23 23 23 22 22 22 22 22 21 21 21 21 21 21 21 21 20 20 20 20 20 19 19 19 20 20 20 20 20 20 20 20 20 20 20 20 21 21 21 22
8 7 7 7 6 6 7 7 7 7 8 8 9 9 9 8 8 8 8 8 8 8 8 8 8 8 8 8 11 15 19 22 23 24 25 25 25 25 25 24 24 24 24 24 23 23 23 23 22 22 22 22 21 21 21 21 21 21 21 21 20 20 20 20 19 19 19 19 19 19 19 19 19 19 19 19 19 19 19 19 20 20 21 21 22 22
7 7 6 6 6 6 6 6 7 7 7 7 7 8 8 7 7 7 7 7 8 8 7 7 7 8 8 8 11 15 19 21 23 24 24 24 24 24 24 24 24 24 23 23 23 22 22 22 22 21 21 21 21 21 20 20 20 20 20 20 20 20 19 19 19 19 19 18 18 18 18 18 18 18 18 18 18 18 19 19 20 20 21 22 22 23
7 7 7 6 6 6 6 6 7 7 7 7 7 7 7 7 6 7 7 7 7 7 7 7 7 7 8 9 12 14 17 19 20 22 22 23 23 23 23 23 23 23 23 22 22 22 21 21 21 21 20 20 20 20 20 20 20 20 20 20 20 19 19 19 19 19 19 18 18 18 18 17 17 17 17 17 17 18 18 19 20 20 21 22 22 23
8 8 7 7 7 6 6 7 7 7 7 7 7 6 7 6 6 7 7 7 7 6 6 6 7 7 7 8 9 11 11 13 14 15 17 18 19 19 20 21 21 22 22 22 21 21 21 21 20 20 20 20 20 20 20 20 20 19 19 19 19 19 19 19 19 19 18 18 18 17 17 17 17 17 17 17 17 18 18 19 20 20 21 22 22 23
9 9 8 8 8 8 7 7 7 7 7 7 7 7 7 7 7 7 7 7 6 6 5 6 6 7 6 6 6 7 9 9 9 10 11 11 12 14 16 18 19 20 21 21 21 21 21 21 21 20 20 20 20 20 20 19 19 19 19 19 19 19 19 19 19 18 18 18 18 17 17 17 17 17 17 17 17 18 18 19 19 20 21 22 22 23
9 10 9 8 8 7 8 8 7 7 7 7 7 7 8 8 8 8 8 8 7 5 5 6 7 7 6 5 5 5 7 9 11 13 14 14 14 15 16 17 17 17 20 20 21 21 21 21 21 21 20 20 20 19 19 19 19 18 18 18 18 18 18 18 18 18 18 18 18 18 17 17 17 17 17 17 18 18 18 18 19 20 20 21 22 23
9 9 8 8 7 7 7 7 7 6 6 6 7 7 7 8 8 8 9 8 7 6 6 6 6 6 6 5 5 5 5 6 8 11 14 15 17 18 18 17 17 18 19 20 20 21 21 20 20 20 20 19 19 18 18 18 18 17 17 17 17 17 17 17 17 18 18 18 18 17 17 17 17 17 17 17 17 18 18 18 19 20 21 21 22 23
8 7 6 6 6 6 6 6 6 5 5 5 6 6 7 7 7 7 8 8 8 7 7 6 6 6 6 5 5 5 4 5 6 6 8 9 11 12 12 12 13 14 15 16 17 18 18 19 19 19 18 18 18 17 17 16 16 16 16 16 16 17 17 17 17 17 17 17 17 17 17 17 17 17 17 17 17 18 18 19 19 20 21 21 22 23
7 6 5 5 5 5 5 5 5 5 5 5 6 6 6 6 5 6 7 8 8 8 7 6 6 6 6 6 5 4 4 5 5 5 5 6 6 6 6 6 7 7 8 9 9 11 14 15 16 16 16 16 16 17 17 16 16 16 16 16 16 16 16 16 16 17 17 17 17 17 17 17 17 17 17 17 18 18 18 19 19 20 21 21 22 22
7 6 5 6 6 5 5 6 6 6 6 6 6 6 6 5 5 5 5 6 7 7 6 7 7 6 5 5 5 4 4 4 4 5 5 6 5 5 4 5 5 5 5 5 6 7 10 10 10 11 14 14 15 15 15 15 16 16 16 16 17 17 17 17 17 17 17 17 17 17 17 17 17 17 17 17 18 18 18 19 19 20 20 21 21 22
6 6 6 7 6 6 5 5 6 7 7 6 6 6 6 6 5 5 5 6 6 6 5 7 7 7 6 5 5 4 4 4 4 5 6 6 5 5 4 5 5 5 5 5 6 7 9 8 7 7 9 10 11 12 13 14 15 16 17 17 17 17 17 17 17 17 17 17 17 17 17 17 17 17 17 18 18 18 18 19 19 20 20 21 21 22
5 6 7 7 6 6 6 5 6 6 6 5 5 5 6 6 6 5 6 6 5 5 4 5 6 6 6 5 4 4 4 4 4 5 6 6 5 4 4 4 4 5 5 5 6 6 6 6 6 6 7 10 12 14 16 16 16 17 17 17 18 17 17 17 17 17 17 17 17 17 17 17 17 17 17 18 18 18 19 19 19 20 20 20 21 21
5 5 6 6 6 6 5 5 6 6 6 5 5 5 6 6 6 5 5 5 4 4 4 4 5 5 5 4 4 4 4 4 3 4 5 5 5 4 3 3 4 5 6 6 6 5 5 5 5 6 6 10 13 15 16 17 17 17 18 18 18 18 18 17 17 17 17 17 17 17 17 17 17 17 17 18 18 18 19 19 19 19 20 20 21 21
6 6 6 6 5 5 5 4 5 5 5 5 5 5 5 6 6 5 5 5 5 4 4 4 4 4 5 5 4 3 3 3 3 3 4 5 5 3 3 3 4 5 6 6 6 5 5 5 5 6 8 12 15 16 17 17 17 18 18 18 18 18 18 18 17 17 17 17 17 17 17 17 17 17 17 17 18 18 19 19 19 19 20 20 21 21
7 6 5 5 4 4 4 4 4 4 4 4 4 5 5 5 5 5 6 5 5 5 5 5 5 5 5 6 5 3 3 3 3 3 4 5 5 3 2 2 3 5 6 6 6 6 5 5 7 10 12 15 17 17 18 18 18 18 18 18 18 18 18 18 18 17 17 17 17 17 17 17 17 17 17 17 18 18 19 19 19 19 20 20 20 21
7 5 4 4 4 4 4 4 4 4 5 5 5 5 6 5 5 6 6 5 5 6 6 6 6 6 6 7 6 5 3 3 3 4 5 5 5 4 2 3 4 5 6 6 6 6 5 5 7 9 13 15 17 18 18 18 18 18 18 18 18 18 18 18 18 18 17 17 17 17 17 17 17 17 17 17 18 18 18 19 19 19 19 20 20 21
5 5 4 3 4 4 4 4 5 5 6 6 6 6 6 5 5 6 6 5 6 6 6 6 7 7 6 7 7 6 4 4 4 4 4 5 5 4 3 3 4 5 6 7 6 6 5 6 6 7 10 14 16 17 18 18 19 19 19 19 19 18 18 18 18 18 17 17 17 17 17 17 17 17 17 17 18 18 18 19 19 19 19 20 20 20
5 5 5 5 5 5 6 6 8 9 10 8 7 6 5 5 6 6 6 6 6 7 7 8 8 8 7 8 8 6 5 4 4 4 3 5 5 5 3 3 3 5 6 6 5 5 5 5 6 7 10 14 16 17 18 18 18 19 19 19 19 18 18 18 18 17 17 17 17 17 17 16 16 16 17 17 17 18 18 18 19 19 19 19 19 20
7 7 6 6 7 7 7 8 8 9 9 9 8 8 5 6 6 7 6 7 7 7 8 8 8 8 8 8 7 7 6 5 4 4 4 5 5 5 3 3 3 5 6 5 5 4 4 5 6 7 10 14 16 17 18 18 18 19 19 19 19 19 18 18 18 17 17 17 17 17 16 16 16 16 16 17 17 18 18 18 18 18 19 19 19 19
8 8 8 7 7 7 6 6 6 6 6 6 7 7 7 7 8 8 7 7 7 7 6 7 7 8 8 8 8 7 6 5 4 4 4 5 5 5 3 3 4 5 6 5 4 4 4 5 5 6 7 12 15 16 18 18 18 19 19 19 19 18 18 18 18 17 17 17 16 16 16 16 16 16 16 16 17 17 18 18 18 18 18 18 18 18
7 6 6 6 7 8 8 8 8 7 7 6 6 6 7 8 9 9 9 8 7 7 6 7 7 7 7 6 6 5 4 4 4 4 4 4 4 4 3 3 4 5 5 4 3 3 4 5 5 5 5 8 12 15 17 17 18 18 19 19 19 18 18 18 18 17 17 16 16 16 16 16 16 16 16 16 16 17 17 17 17 17 17 17 17 17
9 9 10 12 14 15 16 16 15 15 14 11 8 7 7 7 7 7 7 6 6 6 6 7 7 7 5 5 4 4 3 3 4 5 4 3 4 4 4 3 4 5 5 4 3 3 3 5 5 4 4 6 9 12 15 17 18 18 18 18 18 18 18 18 17 17 17 16 16 16 15 15 15 15 15 15 16 16 16 16 16 16 17 17 16 16
17 18 19 20 19 19 18 17 18 19 19 17 15 12 9 7 7 7 6 5 4 4 4 5 5 5 5 4 4 4 3 3 4 5 5 4 4 4 4 3 3 4 4 4 3 4 4 5 5 4 4 4 6 9 13 15 17 18 18 18 18 18 18 17 17 17 16 16 15 15 15 15 15 15 15 15 15 15 15 15 15 15 15 14 13 11
18 19 19 18 17 16 16 16 16 17 18 18 19 18 12 7 6 7 7 5 5 4 4 5 5 5 4 4 4 4 3 3 4 5 5 4 4 4 3 2 2 3 3 3 3 4 5 6 5 5 4 4 5 6 10 13 15 16 17 17 18 18 17 17 16 16 16 15 15 15 14 14 14 14 14 14 14 14 14 14 14 14 13 10 7 5
16 16 15 14 14 14 14 14 14 14 16 17 17 16 11 6 5 6 6 6 5 5 5 5 5 5 4 4 4 4 3 4 4 4 4 4 4 3 2 2 2 2 3 3 3 3 4 4 4 4 4 5 5 5 6 9 11 12 14 15 16 16 16 16 15 15 15 14 14 14 14 14 13 13 13 13 13 13 13 14 13 12 8 6 4 4
8 8 8 9 10 10 10 9 9 11 13 15 15 13 9 5 4 4 5 5 5 5 6 6 5 5 4 4 4 3 3 3 2 2 3 3 3 2 1 1 2 2 2 2 3 3 4 3 3 3 3 4 5 4 4 5 6 7 7 10 11 12 13 14 14 14 14 14 13 13 13 13 13 13 13 12 12 12 12 13 11 8 4 3 3 4
4 4 4 5 5 5 6 6 6 7 9 11 11 10 7 5 4 4 4 4 4 4 5 5 5 5 5 4 3 3 2 2 2 1 1 2 2 2 1 2 2 3 3 2 2 3 4 3 2 2 1 2 3 3 4 4 4 4 4 5 6 7 10 12 12 12 12 12 12 12 12 12 12 12 12 12 12 12 12 12 11 8 4 3 4 5
4 5 4 4 4 4 4 4 5 5 6 6 6 6 6 5 5 4 4 3 3 3 4 5 5 5 5 4 4 3 2 2 2 1 0 1 2 2 1 2 3 3 3 3 3 3 4 4 3 1 1 1 2 2 3 3 3 3 3 3 4 5 8 9 10 10 10 10 11 11 12 12 12 12 12 12 12 12 12 12 11 8 5 4 4 5
5 5 4 4 4 4 4 4 4 4 4 4 4 5 5 5 5 5 4 4 3 3 4 4 5 5 5 5 5 5 4 3 3 4 3 2 2 2 2 3 3 3 3 3 4 4 4 4 4 3 2 1 1 2 2 3 3 4 4 4 4 4 6 6 6 6 7 7 8 9 10 11 11 11 11 11 11 11 12 12 11 10 7 5 4 5
5 5 5 5 4 4 4 4 4 4 4 4 4 5 4 4 5 5 5 4 4 4 4 4 5 5 5 5 5 5 4 4 4 5 5 3 3 3 3 3 4 4 4 4 4 4 5 5 4 4 3 2 2 2 2 3 3 4 4 4 4 4 4 4 4 4 4 4 4 5 6 7 8 9 10 10 11 11 11 12 12 11 10 7 5 5
5 5 5 5 5 5 5 4 4 5 5 5 5 5 4 4 4 4 5 4 4 4 4 4 4 5 5 5 5 5 5 4 4 5 6 5 4 3 3 3 3 3 3 4 4 4 4 4 4 4 4 3 2 2 2 2 3 3 3 4 4 4 4 3 3 3 3 3 3 3 3 4 4 5 7 8 9 10 11 12 12 12 12 11 9 7
5 5 5 5 5 5 5 5 5 5 5 5 4 4 4 4 4 4 5 5 5 5 5 5 5 5 5 5 6 6 6 5 5 6 7 5 5 4 4 3 3 3 3 3 3 3 3 3 3 4 4 4 3 3 2 1 1 1 2 3 4 4 4 3 3 3 3 3 3 3 3 3 3 4 5 7 9 10 11 12 12 12 12 12 12 10
4 5 5 4 4 4 5 5 5 5 5 4 4 4 4 4 5 5 5 5 5 6 6 6 6 6 7 6 6 6 6 5 6 6 7 6 5 5 5 4 4 3 3 3 3 3 3 3 3 3 4 4 4 3 2 0 0 1 2 3 3 3 3 3 3 3 3 3 3 3 3 3 3 3 4 7 8 9 10 11 11 11 12 12 12 12
4 5 5 4 4 4 5 4 4 4 4 5 5 5 5 5 5 5 5 6 6 6 6 6 6 7 9 9 8 8 7 7 8 8 8 7 6 6 6 5 5 5 4 4 4 4 4 4 4 4 4 4 5 5 3 2 1 2 3 2 2 3 3 3 3 3 3 4 4 5 5 4 3 3 3 4 4 4 5 6 7 8 9 10 11 12
4 4 5 5 4 4 4 4 5 5 5 5 5 5 5 6 6 6 5 6 6 6 7 6 6 6 8 9 9 9 9 9 9 9 9 8 7 6 6 6 5 5 5 5 5 5 5 6 5 5 5 5 4 4 3 3 3 3 2 1 1 2 3 3 3 4 4 4 4 5 5 3 3 2 2 2 2 2 3 3 4 5 5 4 6 8
5 5 5 5 4 4 4 5 5 5 5 6 6 6 6 6 6 5 5 5 5 6 6 6 6 6 6 7 8 8 8 8 8 8 7 6 6 6 6 6 6 6 5 5 5 6 7 7 7 7 7 6 5 4 3 3 3 3 3 2 1 2 3 3 4 4 4 4 4 4 4 3 2 2 2 2 2 2 3 2 3 3 3 2 3 4
6 6 5 4 4 4 5 5 5 5 5 5 5 5 5 5 5 5 4 5 5 5 5 5 5 5 5 5 6 6 7 7 8 8 6 7 7 7 6 7 6 6 6 6 6 7 7 8 8 8 7 7 6 6 5 4 4 4 5 3 3 3 3 3 3 3 3 4 4 4 4 3 3 3 3 3 3 3 3 2 3 3 3 2 2 2
7 6 5 5 4 4 5 5 6 6 6 5 4 4 4 4 4 5 5 5 5 4 4 4 4 5 5 5 5 6 6 7 7 8 8 8 8 8 7 7 6 6 6 7 7 7 7 8 8 8 7 7 6 6 5 4 4 5 5 4 3 2 1 2 2 2 3 4 4 4 5 4 3 3 3 3 3 3 2 2 3 4 4 3 2 2
6 6 5 5 5 5 6 6 6 6 5 4 4 4 3 4 4 5 6 6 6 6 5 4 5 5 6 6 6 5 5 6 7 7 8 8 8 8 7 7 7 7 6 6 6 6 6 7 7 7 7 6 6 6 6 4 4 4 4 4 4 2 1 2 2 1 3 3 3 3 3 3 2 2 1 1 2 2 2 3 4 5 5 3 3 2
5 5 5 5 5 5 5 5 5 5 4 4 5 5 4 4 5 6 6 6 6 7 6 5 5 5 6 6 6 5 5 5 5 6 6 7 7 6 7 7 7 7 7 6 5 5 5 6 6 7 6 6 6 6 5 4 4 3 3 4 5 4 3 2 2 2 2 2 2 2 2 2 1 0 0 1 1 2 2 2 2 3 3 3 3 3
5 5 5 5 5 5 5 5 4 4 4 4 5 5 5 5 5 5 5 6 6 7 6 5 5 5 5 5 6 5 5 5 5 5 5 6 8 9 8 7 6 6 7 6 6 5 5 5 5 5 4 4 4 5 4 4 3 3 3 4 4 4 3 2 2 2 2 2 2 1 1 2 2 1 1 1 2 2 2 2 2 3 3 3 2 3
4 4 5 4 4 5 6 5 5 5 5 6 5 5 5 5 4 4 5 6 6 6 6 5 4 4 5 5 6 6 5 5 5 5 4 5 5 6 6 6 6 6 6 6 6 6 6 6 5 4 3 3 4 4 4 3 3 3 3 4 4 3 2 1 1 2 2 2 2 2 2 2 2 2 0 1 2 3 3 2 2 3 3 3 3 3
4 4 5 4 4 5 5 5 5 5 6 6 5 5 5 4 4 4 4 5 5 6 6 5 4 4 5 5 5 6 6 6 6 6 5 4 4 4 4 5 5 6 5 6 6 6 6 6 5 4 3 3 3 3 3 3 3 3 3 3 3 3 2 2 2 2 2 2 2 2 2 2 2 1 0 1 2 2 3 3 2 3 3 3 3 3
5 5 5 5 5 5 5 5 5 5 6 6 5 5 4 5 5 5 5 5 5 5 5 4 4 4 5 5 6 6 7 7 7 6 6 5 4 4 4 4 4 5 5 5 6 6 6 6 6 5 4 3 3 3 3 3 3 3 3 3 3 3 3 2 2 2 2 2 3 3 3 3 2 2 1 0 1 2 3 3 3 3 3 3 3 3
4 5 5 5 5 5 5 5 5 5 6 6 6 5 4 5 6 7 6 5 4 4 4 4 5 5 6 6 6 7 7 7 7 6 6 5 4 4 4 3 3 3 3 4 4 4 4 5 5 5 5 4 3 3 2 2 3 3 2 3 3 3 2 2 2 2 2 2 3 3 3 2 2 3 3 1 0 2 3 3 4 3 3 3 3 3
5 5 5 5 6 6 6 6 6 6 6 6 6 5 4 4 4 4 5 5 4 4 4 4 5 5 6 6 6 6 6 6 6 5 5 4 4 4 3 3 3 3 3 2 2 2 2 2 3 4 6 6 5 4 2 2 2 2 2 2 2 2 2 2 2 2 2 2 3 3 2 2 2 2 3 2 0 1 3 3 4 4 3 3 2 3
5 5 5 5 5 6 5 5 5 6 6 6 6 6 5 4 4 4 3 4 4 4 4 4 5 5 6 6 6 7 6 6 6 6 5 4 4 4 4 4 3 3 3 2 2 1 1 1 1 2 4 7 8 7 3 3 3 2 2 2 2 2 2 2 2 2 3 3 3 3 3 2 2 2 2 2 1 0 2 3 4 4 4 3 2 3
Wind_Direction
285 288 290 291 291 290 288 288 290 290 290 290 289 289 289 288 286 284 282 281 279 277 275 275 275 275 276 277 278 279 280 281 282 283 283 283 284 284 285 285 285 285 285 285 285 285 285 285 285 284 284 283 283 282 281 281 280 280 280 279 278 277 276 275 274 274 274 275 275 276 276 277 277 278 278 280 282 283 285 285 284 283 283 284 285 287
285 286 286 285 283 283 283 283 282 282 285 286 286 287 288 288 287 285 283 280 277 274 273 273 273 272 271 273 275 277 279 280 281 282 282 283 283 284 284 284 285 285 285 285 285 285 285 284 284 284 284 283 283 282 281 280 280 279 279 278 278 277 276 275 275 275 275 275 276 276 277 277 278 278 279 280 282 284 285 286 286 286 285 285 285 286
290 288 286 283 281 280 282 282 279 277 278 281 282 282 284 284 284 283 282 281 278 275 272 271 272 272 271 271 274 276 278 279 280 281 282 282 282 283 283 283 284 284 284 284 284 284 284 284 284 284 284 283 283 282 281 281 280 279 278 278 277 277 276 276 276 276 276 276 276 277 277 278 279 279 280 281 282 283 285 286 287 287 287 286 286 285
286 286 286 285 282 279 280 281 280 278 276 278 279 279 279 279 278 278 277 277 277 276 273 270 269 270 270 271 273 275 277 278 280 280 281 282 282 282 283 283 284 284 284 284 284 284 285 285 285 285 285 284 284 283 283 282 281 280 279 278 278 278 278 277 277 277 277 277 277 277 278 278 279 280 281 281 282 283 284 285 286 287 287 286 286 286
279 280 283 283 282 279 277 276 277 277 276 276 276 276 274 272 273 274 274 274 274 273 273 270 268 267 268 269 272 274 276 278 279 280 281 282 282 283 283 284 284 284 285 285 285 285 285 285 286 286 286 286 286 285 285 284 283 282 282 281 280 280 279 279 278 278 278 277 277 278 278 279 279 280 281 281 282 283 283 284 285 285 285 285 285 285
275 275 278 277 276 276 276 274 274 275 276 276 274 273 271 269 270 271 273 274 273 273 272 271 268 267 266 268 271 274 276 278 279 281 282 282 283 284 284 285 285 285 285 286 286 286 286 286 286 286 286 286 286 286 286 285 285 284 284 283 282 281 280 279 279 278 278 278 278 278 278 279 279 280 281 281 282 283 283 283 283 283 284 284 284 283
273 272 274 273 273 273 273 272 272 273 275 275 275 273 272 270 268 268 268 269 270 271 272 272 270 268 266 267 270 273 275 278 279 281 282 283 283 284 285 285 285 286 286 286 286 286 286 285 285 285 285 285 285 285 285 285 285 284 284 284 283 282 282 281 280 280 280 280 279 280 280 280 280 281 281 281 281 282 281 281 282 282 282 283 283 283
273 272 269 271 272 272 270 267 266 267 269 272 274 275 275 273 270 268 266 265 265 266 270 272 271 269 265 265 267 269 272 275 278 279 281 282 282 283 283 284 284 285 285 285 285 285 285 285 284 284 284 284 284 284 284 284 284 284 284 284 284 284 284 283 283 283 282 282 282 281 281 281 280 280 280 279 279 279 279 280 281 282 283 283 283 283
270 272 269 267 269 272 272 268 264 263 265 268 270 272 274 275 275 274 273 270 266 265 268 271 272 271 268 264 263 265 267 269 271 273 275 276 277 279 280 281 283 283 284 284 284 284 284 284 284 284 284 284 284 285 285 285 285 286 286 286 286 286 286 285 285 284 284 283 282 282 281 280 279 278 277 277 277 278 279 280 281 282 283 282 283 283
264 267 269 266 265 266 270 270 267 264 262 265 266 266 269 273 276 278 278 276 273 269 268 270 272 273 273 268 263 262 265 268 270 272 274 275 276 278 279 281 282 283 283 284 284 284 284 284 285 285 285 285 286 286 286 287 287 287 288 288 288 288 288 287 286 285 284 283 282 281 280 279 278 277 277 277 277 278 279 280 281 281 281 281 281 281
261 262 265 266 264 261 261 265 266 265 259 261 262 261 260 263 267 272 275 275 274 272 269 267 268 270 273 273 269 265 264 268 271 273 275 276 278 279 280 281 282 282 283 283 283 284 284 284 285 285 285 286 286 286 286 286 287 287 287 288 288 287 287 287 286 286 285 284 283 282 281 280 279 278 278 278 279 279 280 280 280 280 280 280 280 280
260 261 261 263 262 261 259 261 263 263 258 258 259 259 257 253 253 258 263 267 270 271 271 268 265 264 266 270 271 270 267 268 270 273 275 275 276 277 279 280 281 281 281 282 282 283 283 283 284 284 284 284 284 284 284 284 284 284 285 285 285 285 285 285 285 285 284 283 283 282 281 281 280 280 280 280 280 280 280 280 280 280 280 279 280 280
257 258 260 261 261 261 261 263 264 261 256 253 254 256 257 252 248 248 253 259 263 267 271 272 270 265 261 263 266 270 271 270 271 272 273 274 273 273 275 276 276 276 277 279 278 278 279 280 281 281 281 281 281 281 281 282 282 282 283 283 283 283 283 283 283 282 282 281 281 280 280 279 279 279 279 279 279 279 279 279 280 280 280 280 280 280
256 257 258 258 258 258 259 259 261 260 257 253 252 254 258 258 256 254 255 258 261 263 268 270 271 270 266 261 259 260 264 268 270 271 271 270 269 268 269 271 271 271 270 271 271 271 272 274 276 277 277 277 278 279 279 280 280 281 280 280 280 280 280 280 280 279 279 279 279 278 278 278 278 278 277 278 278 278 279 279 280 280 280 281 281 281
256 257 256 255 255 255 256 256 256 257 257 255 256 259 263 264 262 258 258 261 262 264 265 267 269 269 268 262 256 250 251 257 263 267 268 268 264 260 257 265 268 269 267 267 268 269 269 268 269 270 272 271 271 271 272 275 276 277 277 277 277 277 278 277 277 277 277 277 277 277 276 276 276 276 276 277 277 278 279 280 281 281 282 282 282 282
251 251 252 253 253 254 253 254 256 258 260 260 260 261 262 261 259 256 255 259 262 263 262 265 269 270 269 258 246 237 236 244 252 258 263 266 263 253 238 251 261 266 265 263 264 266 268 264 262 261 264 265 267 268 269 271 272 273 274 274 275 275 276 276 276 276 276 276 276 275 275 275 275 276 276 277 278 280 281 281 282 282 282 282 282 282
250 249 250 252 254 255 255 256 258 261 263 264 262 259 257 257 256 255 254 257 258 259 255 257 263 270 275 268 247 224 214 224 238 250 257 263 262 249 216 228 250 261 263 261 261 262 264 262 260 259 259 262 265 267 268 269 270 271 272 272 273 274 274 274 275 275 275 275 275 275 275 275 276 276 277 279 280 281 282 282 283 283 283 282 282 282
259 257 257 258 259 261 263 264 264 264 265 265 264 262 259 256 255 255 254 253 253 253 253 252 253 260 271 276 265 231 193 205 227 249 256 261 260 249 204 209 236 253 261 261 261 260 260 259 257 256 259 263 265 267 268 269 270 271 271 272 272 273 273 274 274 274 274 275 275 275 276 276 277 278 279 280 281 282 282 283 283 283 283 282 282 282
262 261 262 265 268 271 272 270 268 268 268 266 265 264 262 258 255 253 251 250 248 248 250 252 252 255 260 266 265 252 203 205 222 246 257 262 261 253 207 206 233 250 258 259 260 260 259 258 259 260 262 265 266 268 269 270 271 271 272 272 273 273 273 274 274 274 275 275 275 276 276 277 278 279 280 281 281 282 282 282 283 283 283 283 283 283
262 260 259 266 273 276 275 269 264 262 263 263 263 263 261 258 255 252 250 248 246 245 245 248 251 254 257 263 264 259 231 218 225 242 253 260 261 254 216 212 234 250 256 257 257 257 257 258 260 262 264 265 267 268 269 270 271 272 272 272 273 273 273 274 274 274 275 275 276 276 277 278 278 279 280 281 281 281 282 282 282 283 283 284 284 284
262 260 257 263 271 276 276 273 269 265 265 265 263 261 257 256 253 250 247 246 246 245 244 246 248 250 255 259 261 257 236 221 223 235 248 255 256 251 218 207 224 243 254 256 256 254 253 255 256 258 261 263 265 267 268 269 270 271 271 272 272 272 272 273 273 274 274 275 276 276 277 278 278 279 280 281 281 281 282 282 282 283 284 285 285 286
267 266 264 262 262 264 268 271 271 270 269 267 264 260 257 254 251 249 245 244 243 243 242 243 246 250 254 258 259 256 239 222 219 226 241 251 254 249 219 201 218 238 249 254 253 250 246 249 251 254 256 260 262 264 266 267 268 269 270 270 271 271 271 272 273 273 274 275 275 276 277 277 278 279 280 281 281 281 282 282 283 284 285 287 288 289
261 261 260 257 255 255 259 263 266 268 267 265 262 260 258 255 253 252 248 244 243 243 243 245 249 253 255 257 258 256 245 229 221 223 233 246 251 249 224 208 222 238 247 249 250 249 244 246 248 251 255 258 260 262 263 265 266 267 268 269 269 270 270 271 272 272 273 274 275 276 276 277 278 280 280 281 282 282 282 283 284 286 287 289 291 292
253 254 254 253 252 252 254 261 266 269 268 267 266 266 265 264 263 262 260 256 253 252 251 253 255 256 255 256 257 255 246 231 220 221 231 243 250 250 237 226 236 245 251 250 248 247 247 249 248 248 251 255 257 259 261 263 264 265 266 267 268 269 269 270 271 272 272 273 274 275 276 277 279 280 281 281 282 283 283 284 286 288 290 291 293 295
254 254 258 260 261 262 267 276 284 288 290 286 283 281 280 277 275 272 269 266 263 260 260 258 257 257 257 257 257 254 243 221 212 214 230 244 252 252 244 235 241 249 257 255 249 244 248 254 252 249 246 251 255 257 259 260 262 263 265 266 267 268 268 269 270 271 272 273 274 275 276 277 279 280 281 282 283 284 285 286 288 289 291 293 295 297
283 282 282 281 281 283 289 296 301 304 307 306 305 304 302 300 295 288 279 271 266 264 263 261 261 262 264 262 260 254 240 211 204 207 221 240 252 253 244 234 237 247 258 258 253 246 249 256 256 252 243 246 251 253 255 257 259 261 263 264 265 266 268 268 269 270 271 272 273 274 276 277 279 280 282 283 284 285 286 288 289 291 293 295 298 300
288 287 286 286 288 293 300 305 308 309 310 310 310 310 310 313 311 306 299 293 287 283 277 275 275 274 273 267 261 253 239 215 206 206 212 230 246 252 244 230 231 241 255 258 253 247 249 256 257 254 246 240 243 248 252 254 256 259 261 262 264 265 267 268 269 270 270 272 273 274 276 277 279 281 283 284 285 287 288 289 291 293 295 297 300 304
279 279 280 284 290 298 304 306 307 308 308 308 309 310 311 313 309 306 303 310 313 310 299 292 287 284 279 271 265 257 244 231 218 209 203 218 236 244 238 225 222 232 248 259 257 251 250 256 258 257 253 243 239 242 247 251 254 257 259 261 263 264 266 267 268 269 270 271 272 274 276 278 280 282 283 285 286 288 289 290 292 294 297 301 305 309
274 276 279 288 296 302 305 305 305 304 303 304 307 310 314 312 304 300 302 311 315 312 305 299 295 291 286 281 275 267 254 246 231 214 198 214 232 240 227 218 220 227 238 259 266 263 254 253 252 251 250 245 240 238 243 247 251 254 257 260 262 263 264 266 267 268 269 271 272 274 276 278 280 282 283 285 286 288 289 291 293 295 300 304 306 304
278 283 292 300 303 304 302 300 298 297 298 301 304 307 311 306 297 293 298 307 310 309 306 306 305 303 300 295 288 278 265 263 254 230 198 218 234 243 217 222 224 222 218 247 268 273 265 257 247 239 243 246 242 238 236 239 242 247 253 257 260 262 263 264 266 267 269 270 271 273 275 277 279 281 283 285 286 288 290 292 294 297 304 306 303 298
299 303 304 302 300 297 294 290 289 290 293 297 300 302 302 297 290 287 291 297 301 302 302 303 305 306 309 307 301 294 291 298 313 321 174 228 246 251 206 226 232 227 209 216 249 273 279 273 262 252 265 260 254 247 237 232 231 232 237 247 254 259 260 261 263 265 266 268 270 271 273 276 278 280 283 285 287 290 292 295 297 300 304 302 296 291
297 297 292 290 290 290 289 289 288 288 290 293 294 293 292 290 288 286 286 287 287 288 290 292 294 295 297 292 289 288 292 296 301 302 197 249 262 260 222 233 242 243 226 219 232 254 272 275 273 272 314 275 263 257 246 233 227 223 223 230 241 250 254 255 257 260 262 265 267 269 272 274 277 279 282 285 288 291 294 296 298 300 300 294 287 285
293 293 292 293 294 293 291 289 288 286 286 286 286 286 287 287 286 285 283 280 277 276 277 281 283 283 282 277 275 273 273 275 274 272 268 262 263 262 246 245 251 255 250 239 237 243 254 262 265 265 261 241 236 240 245 232 223 216 213 219 229 241 247 248 250 253 254 260 264 267 270 273 276 279 283 286 289 292 294 296 296 296 294 288 285 287
298 297 297 298 298 296 293 289 286 284 283 282 281 282 282 283 284 283 282 278 273 268 265 270 273 276 277 275 273 271 270 267 273 279 284 277 270 265 260 255 255 256 256 251 246 244 248 250 253 256 257 247 232 224 223 223 218 212 205 209 219 229 237 234 236 241 246 250 257 265 269 273 277 280 283 285 288 290 292 293 294 294 295 294 294 297
301 299 298 299 298 297 295 291 287 284 282 279 278 278 279 280 281 282 281 278 274 267 260 259 261 265 269 271 273 274 273 273 284 294 300 296 291 287 282 272 266 264 261 257 252 248 250 246 243 243 252 253 246 231 213 215 215 211 206 209 214 220 223 218 219 225 234 240 247 255 260 266 272 276 279 281 284 285 288 290 292 294 297 299 302 304
301 298 296 295 295 294 293 290 287 285 283 280 278 276 278 279 280 280 281 279 277 274 270 264 260 259 260 263 267 271 275 280 289 294 295 291 290 290 288 284 283 282 275 268 261 256 257 253 243 238 242 251 253 248 230 225 221 222 220 220 221 223 223 213 208 208 219 229 239 246 249 253 257 263 268 276 280 283 286 289 292 295 298 301 303 304
296 293 292 290 289 289 289 288 287 286 285 284 282 281 281 281 281 281 281 279 278 277 275 272 268 263 260 261 263 267 273 278 280 280 279 277 276 274 273 274 273 272 270 272 272 270 267 266 258 249 243 247 252 255 244 232 333 247 236 229 227 228 232 222 209 201 209 223 232 239 242 245 250 257 264 274 280 285 289 292 294 296 299 301 303 304
292 290 289 287 285 284 286 286 286 286 286 287 287 286 284 282 280 279 279 277 275 274 274 273 270 267 263 263 263 264 267 270 271 272 270 269 267 264 263 266 263 259 256 263 268 272 272 271 269 265 260 254 255 255 248 223 205 218 235 235 233 233 236 229 216 207 211 224 233 240 244 244 246 254 266 276 284 291 292 290 291 293 297 300 302 303
287 286 285 285 284 282 282 284 285 286 286 285 285 285 285 283 280 277 276 275 273 272 270 269 269 268 265 265 265 265 266 266 266 266 265 263 261 261 261 263 263 259 255 256 258 261 263 264 264 265 265 265 261 255 241 218 202 200 211 233 262 258 245 229 218 214 216 222 232 240 248 247 245 247 259 269 274 277 279 281 284 287 295 300 302 303
285 284 283 284 284 283 281 283 285 286 286 286 287 288 288 288 286 282 278 276 275 273 269 266 266 266 265 266 266 267 268 267 267 266 265 261 258 258 259 262 263 263 259 255 252 252 253 256 257 257 258 259 259 253 236 214 196 182 169 176 227 247 243 223 214 213 213 215 221 229 239 243 242 241 245 246 245 246 249 260 274 284 292 295 297 301
290 291 291 293 293 290 286 286 286 286 285 286 289 290 290 291 291 291 289 287 284 281 279 276 274 273 272 270 269 269 268 268 267 266 264 261 259 257 257 258 260 260 258 253 249 246 245 249 251 252 251 252 253 251 241 218 196 185 181 190 208 224 227 214 207 206 209 213 217 221 226 235 240 241 241 242 239 236 233 241 260 275 283 274 269 278
299 301 303 303 300 295 291 288 287 286 284 284 285 286 287 290 294 298 299 299 296 294 293 296 296 295 292 288 282 277 271 268 265 263 261 259 256 254 254 255 257 257 256 252 248 245 243 246 249 251 250 249 249 247 238 216 197 193 195 195 194 198 249 234 218 203 202 213 218 220 222 227 232 236 240 246 250 251 246 242 253 264 272 267 260 259
303 302 301 298 294 291 289 289 288 288 287 286 284 284 284 289 295 299 300 299 299 299 300 300 299 297 295 292 289 284 277 269 263 260 258 255 253 252 253 254 255 257 258 256 254 252 251 251 252 253 253 249 245 241 234 213 198 196 202 192 182 177 239 254 248 219 203 211 213 214 214 217 223 230 244 257 269 276 276 266 265 268 271 269 268 267
296 294 293 291 290 289 290 289 289 289 290 291 293 294 295 293 294 295 295 295 295 296 297 295 292 289 287 287 287 286 284 278 270 265 262 260 259 258 259 257 256 256 256 260 263 266 266 261 258 256 252 245 239 233 225 209 197 193 198 192 187 188 199 206 197 183 191 212 215 211 204 196 182 130 346 301 294 292 295 286 283 280 276 270 269 271
290 290 289 290 291 292 292 291 292 294 297 298 299 298 296 292 290 290 291 290 291 291 289 290 288 285 283 285 287 288 290 290 287 283 276 271 271 270 268 263 259 256 254 255 258 262 265 265 263 258 246 235 228 222 216 208 200 195 194 193 194 196 198 178 157 156 171 194 203 193 153 131 111 88 24 322 307 302 297 294 292 291 288 288 285 281
287 287 287 289 291 294 296 298 301 302 300 297 293 289 286 285 283 282 283 283 284 284 283 281 279 278 278 283 287 290 292 293 292 289 283 273 267 262 260 257 255 253 251 251 252 253 255 258 258 255 239 227 222 219 214 208 203 198 190 187 190 195 199 180 164 165 172 176 170 149 123 109 100 94 55 303 301 299 294 282 275 277 283 291 292 288
284 286 290 294 297 299 300 300 299 296 292 288 284 280 279 279 280 280 278 276 277 278 279 277 273 273 275 281 286 290 291 291 291 290 287 282 275 268 262 259 255 251 249 250 249 249 249 249 248 245 235 226 224 221 216 209 204 199 187 175 176 185 200 212 209 194 178 172 161 148 133 116 108 109 181 287 300 303 301 291 277 268 268 278 285 287
289 293 297 299 298 296 294 290 288 285 284 284 282 281 280 281 284 286 284 282 281 282 283 283 282 282 283 285 287 289 290 290 291 291 293 293 292 289 281 274 265 257 252 251 251 250 248 245 241 237 233 229 225 220 210 202 199 193 178 167 167 179 199 212 209 192 177 174 163 153 146 144 149 157 161 227 317 312 310 307 299 286 270 270 274 281
296 295 294 292 290 288 286 284 284 284 285 288 289 289 286 286 290 293 294 294 294 293 292 293 293 293 292 291 290 290 290 290 290 291 291 290 289 287 284 279 272 265 259 255 253 251 251 246 239 233 229 228 226 220 205 191 185 181 168 163 167 176 192 201 194 180 171 171 163 157 154 155 153 147 136 128 303 303 308 308 304 297 284 275 273 274
291 288 287 286 285 285 285 287 288 290 291 293 295 295 295 293 295 297 298 299 299 297 296 294 293 291 289 288 287 287 287 286 286 285 283 280 277 277 278 278 277 274 269 260 251 247 250 252 245 236 228 224 221 215 202 180 168 162 164 169 171 174 180 182 177 172 171 171 163 152 146 133 120 115 116 122 155 295 306 307 302 297 292 290 287 284
287 284 282 282 282 285 287 290 292 293 293 296 298 301 303 305 305 303 301 300 298 296 292 289 286 284 283 283 284 284 285 286 287 287 285 282 279 277 275 275 274 274 270 263 251 239 234 259 280 266 244 226 217 210 202 178 163 159 171 184 180 171 169 166 163 165 170 168 158 147 140 131 118 113 118 123 124 316 311 306 298 293 291 298 304 302